GFSGL_sfc_temp_204.txt.gz
Temp
78 77 77 75 74 73 73 73 73 74 75 74 75 74 73 72 72 70 68 67 65 63 61 60 59 59 57 57 56 56 54 52 50 52 52 55 56 56 58 58 60 59 58
78 77 76 76 75 74 74 74 73 74 74 76 75 74 72 72 71 70 69 68 66 63 62 60 59 63 57 55 54 53 52 51 50 47 50 52 54 55 54 54 59 63 56
77 77 76 76 76 76 76 76 73 74 74 74 74 73 72 72 71 70 70 68 66 65 62 60 59 58 55 53 52 52 50 52 49 48 49 49 51 51 51 53 54 54 61
77 77 76 76 77 77 77 77 75 75 76 74 74 74 73 72 71 70 69 67 65 64 62 60 59 58 56 53 53 50 49 48 48 48 48 48 47 50 48 49 50 51 55
77 77 77 77 78 77 77 77 76 74 76 74 74 74 73 72 73 69 68 67 64 62 61 60 59 61 64 59 54 50 49 48 47 47 48 46 46 47 47 48 47 49 53
78 77 78 77 77 76 76 76 74 74 74 73 74 74 72 74 68 67 69 66 65 63 60 59 59 66 64 65 64 63 54 49 48 47 46 46 47 47 46 47 47 47 46
78 78 77 77 76 76 77 76 74 74 74 74 74 73 72 71 65 65 67 67 65 62 60 58 59 63 60 57 62 61 59 61 61 51 49 47 47 48 47 46 47 47 47
78 78 78 77 76 76 76 76 75 76 75 74 74 73 72 70 64 63 65 65 63 62 61 59 58 55 54 54 52 50 51 52 53 55 51 50 50 52 49 50 49 48 50
79 78 78 77 76 76 76 76 77 76 76 74 74 72 71 68 61 61 65 63 62 61 62 60 57 53 57 58 52 50 49 50 58 59 59 59 58 58 58 49 49 47 48
79 79 79 78 77 76 77 77 78 77 77 73 73 72 69 68 59 59 64 65 62 59 58 57 60 55 57 56 51 49 47 48 49 50 52 53 55 56 60 52 49 48 46
82 80 79 79 78 79 78 78 78 77 74 73 72 70 70 68 62 57 59 65 65 61 57 55 55 56 53 52 52 49 50 49 51 47 48 50 52 52 54 51 50 50 47
81 79 78 78 79 80 77 77 77 76 74 73 72 69 67 63 60 55 57 61 61 64 59 57 55 53 51 51 51 52 51 52 47 47 48 50 50 52 53 52 53 51 51
77 78 78 79 79 80 77 77 76 76 76 75 72 71 66 65 64 55 55 56 58 60 58 58 55 51 50 51 52 52 52 47 46 46 47 48 49 51 51 53 54 53 54
78 78 78 77 77 79 79 79 77 76 76 76 72 70 67 64 63 62 59 55 56 57 59 56 57 56 54 52 51 51 49 47 47 48 47 48 49 50 50 49 48 49 49
79 80 80 80 76 79 80 79 79 81 78 77 76 73 66 63 63 61 58 57 55 54 50 51 49 48 48 47 48 49 49 48 48 48 48 48 48 48 49 49 47 47 47
79 80 80 80 81 79 79 76 55 55 58 57 59 68 70 59 52 49 50 49 49 49 51 51 49 48 48 48 49 50 49 52 49 49 48 47 48 47 47 48 46 45 45
80 81 82 77 82 79 79 78 76 60 49 51 53 54 55 54 51 47 46 47 47 51 60 52 51 51 51 50 51 50 50 49 49 49 48 48 48 49 48 47 46 46 45
82 69 81 80 81 81 79 79 78 73 67 64 52 55 50 49 47 45 45 48 50 55 60 56 53 53 52 51 51 50 49 48 48 48 48 48 47 47 47 46 45 45 45
79 78 78 80 79 79 79 77 74 72 71 67 59 52 47 44 45 44 46 59 57 57 55 55 55 54 53 52 51 50 50 49 49 48 48 47 48 46 46 46 46 47 46
75 71 70 74 73 72 73 72 72 70 70 63 65 65 51 52 53 51 55 59 59 58 57 58 58 56 53 52 51 50 50 49 48 48 48 47 47 46 46 46 46 45 45
74 74 69 73 72 72 73 73 72 70 68 64 67 56 50 61 60 56 55 58 58 53 54 57 59 56 53 51 52 51 51 50 48 49 47 47 47 47 46 46 46 46 46
73 75 74 72 72 74 73 74 70 70 69 64 55 53 47 60 60 58 59 59 55 56 57 59 60 58 57 56 54 53 51 49 48 48 48 48 47 48 49 47 46 46 45
74 74 74 73 71 68 70 72 70 70 64 61 58 56 56 60 60 61 59 58 56 57 59 58 60 59 56 55 56 54 52 50 49 49 49 48 47 48 49 46 46 45 45
68 69 72 70 71 74 73 71 71 63 65 63 61 57 58 60 61 59 60 58 58 59 60 59 60 60 57 55 53 53 51 50 49 51 50 48 49 47 51 49 47 47 45
66 66 67 70 73 73 71 72 71 69 67 63 61 59 60 59 60 57 56 57 59 59 59 58 59 59 59 56 54 52 45 40 48 45 49 52 53 50 51 50 49 48 47
63 64 64 66 68 69 72 70 69 68 63 61 61 57 57 57 57 57 58 58 58 58 60 57 60 61 58 56 54 42 38 38 44 43 50 53 50 51 51 50 50 47 46

GFSGL_sfc_temp_207.txt.gz
Temp
77 77 75 73 72 73 72 72 72 72 72 72 73 73 72 71 70 69 66 65 64 61 59 59 58 57 56 55 54 53 52 51 49 50 49 52 53 54 55 55 57 56 55
77 76 75 73 73 73 73 73 71 71 72 72 73 73 72 72 70 69 67 67 64 62 60 58 57 60 55 53 52 52 50 48 48 46 47 50 51 52 52 51 56 60 54
76 76 75 73 72 75 76 75 70 70 71 72 73 72 72 71 70 69 68 67 65 64 61 59 57 56 54 51 51 50 48 50 47 46 47 47 48 49 50 50 52 52 58
77 76 74 74 74 76 76 75 70 70 70 72 73 72 72 71 70 70 68 66 65 64 62 60 58 56 54 52 52 50 49 47 46 46 45 46 46 48 46 47 49 50 53
76 75 75 75 75 75 74 75 73 70 71 71 72 72 72 72 72 69 68 66 64 63 61 61 58 59 63 57 53 49 48 47 46 45 45 44 45 45 46 46 45 48 50
76 75 76 75 74 74 74 74 72 70 70 71 72 72 72 73 68 67 69 66 64 62 60 59 58 65 63 63 63 61 54 48 47 46 45 45 46 45 45 45 45 45 45
76 76 75 75 74 74 74 74 72 71 70 71 72 72 72 72 66 65 67 67 65 63 60 58 59 63 60 57 62 63 61 62 59 50 47 46 46 47 46 45 44 45 45
76 76 76 75 74 75 73 73 73 72 71 71 72 72 73 71 64 62 65 67 65 61 61 60 58 57 56 55 52 51 51 51 52 54 50 49 49 49 48 48 46 46 47
76 76 76 76 75 74 73 73 74 72 72 71 72 72 72 72 61 61 63 66 64 61 61 60 58 57 58 58 52 50 49 50 57 59 58 58 58 58 56 47 47 44 46
77 77 77 76 76 74 74 74 75 74 74 72 72 73 70 72 59 59 63 68 65 61 60 59 61 58 56 57 52 49 48 50 48 49 50 52 54 53 59 51 48 46 44
79 78 77 77 76 76 76 76 75 73 74 71 71 72 72 70 64 57 58 68 67 63 60 57 56 56 54 53 53 49 50 50 51 47 48 49 51 51 51 49 48 47 45
78 77 76 76 77 77 76 75 74 73 72 71 71 72 73 70 60 56 56 61 64 65 59 58 57 54 52 52 51 52 51 53 46 47 47 48 49 50 51 51 49 49 48
76 76 76 76 77 78 74 74 72 73 73 72 72 72 73 65 62 56 54 57 59 66 63 59 56 51 51 51 52 52 52 47 46 46 47 47 48 49 48 49 50 49 49
74 75 75 75 75 76 77 76 75 75 74 74 72 72 73 64 64 58 58 59 58 62 60 58 56 56 54 54 52 51 48 47 47 47 47 47 47 48 48 46 46 46 47
76 76 75 75 73 76 76 77 76 79 76 76 76 76 74 64 65 61 59 59 62 63 56 55 49 49 48 49 49 49 47 47 47 46 47 47 47 47 47 45 44 43 45
76 77 77 77 77 75 76 75 55 56 56 56 57 70 74 62 53 51 50 49 51 49 55 53 51 49 52 50 50 51 48 51 47 47 46 46 47 47 45 45 44 43 45
77 78 78 73 78 76 74 76 73 59 49 51 49 52 55 57 51 49 47 47 47 51 63 54 53 51 55 51 50 50 50 49 48 48 47 47 47 47 46 45 44 43 43
76 66 77 77 78 77 76 75 76 75 70 67 51 52 51 52 49 46 44 48 49 52 63 54 56 55 52 51 51 50 50 48 48 47 47 48 47 46 46 44 43 43 42
72 75 74 76 75 75 77 75 75 73 70 67 59 53 45 42 42 42 47 59 55 54 60 57 56 53 53 54 53 50 50 49 49 47 47 47 47 46 45 44 44 46 46
72 67 67 73 72 71 72 72 72 71 70 64 66 67 51 52 51 49 53 60 56 56 59 56 56 56 55 55 53 51 49 49 47 47 47 47 47 45 46 44 44 44 44
70 71 67 72 72 72 72 72 72 70 69 65 67 63 52 62 60 55 52 56 57 57 56 56 54 55 56 52 52 51 51 51 49 48 48 47 47 46 45 44 45 45 44
68 71 72 71 71 71 71 72 71 70 69 67 65 54 46 63 62 58 56 57 58 58 56 57 59 56 57 54 53 54 54 52 50 48 47 48 47 47 45 45 45 45 43
66 66 69 72 72 67 70 72 69 70 69 67 61 56 54 60 60 59 57 59 55 54 56 58 58 55 57 56 56 57 56 53 52 51 49 47 47 47 46 45 45 45 42
63 65 65 66 69 71 71 71 68 62 66 63 61 59 58 60 61 60 60 61 56 56 57 57 58 60 58 56 54 56 55 53 53 53 51 49 48 46 48 45 46 45 43
58 58 59 61 64 67 69 68 68 67 65 64 63 61 60 60 60 59 57 58 57 57 57 58 59 60 59 57 55 55 48 40 51 46 50 50 49 49 49 47 46 45 44
55 55 56 57 58 60 65 67 67 66 65 63 62 59 58 57 58 55 56 57 59 59 60 60 61 59 58 58 57 48 39 38 44 42 50 51 49 48 48 46 47 45 44

GFSGL_sfc_temp_210.txt.gz
Temp
76 75 75 74 74 74 74 74 74 74 74 75 75 76 75 74 74 72 70 68 67 65 65 63 63 62 62 62 61 61 60 60 59 60 58 60 60 61 63 62 64 63 64
76 75 75 75 74 74 73 74 73 73 74 74 75 74 75 75 73 72 70 70 67 66 65 63 63 64 61 60 61 59 59 57 58 55 56 58 58 60 60 58 62 66 63
76 76 75 75 74 74 75 74 72 73 73 74 74 74 74 74 73 73 72 70 68 67 66 64 63 62 60 59 58 58 57 57 56 56 57 56 57 58 59 59 60 60 65
77 76 75 74 74 76 75 74 72 72 73 73 74 75 74 74 74 73 72 70 69 68 67 65 64 62 61 59 58 56 55 55 55 55 55 56 56 57 56 57 60 61 61
76 75 75 75 75 75 74 73 72 72 73 73 73 74 75 74 75 73 72 71 69 67 67 65 65 64 64 61 59 56 54 55 55 55 55 54 55 57 57 56 56 58 60
75 75 75 74 74 73 73 73 72 72 72 72 72 73 73 75 68 67 72 72 70 67 66 64 64 66 65 63 63 62 57 55 54 54 55 53 54 55 56 56 54 56 58
75 75 74 74 73 73 73 73 72 72 72 72 72 73 73 74 66 65 67 73 70 68 66 64 64 67 64 63 63 63 61 61 60 57 56 54 54 56 56 54 53 54 56
75 75 74 74 73 74 73 73 73 72 72 72 72 73 73 74 64 63 65 73 70 68 67 65 64 63 63 61 60 59 57 58 58 61 58 58 56 57 56 57 54 53 56
74 74 74 74 74 73 72 73 74 73 73 72 73 73 73 74 61 61 63 71 69 67 67 64 63 63 61 59 59 58 55 57 59 58 58 57 57 57 57 55 56 54 57
75 75 75 75 74 73 74 73 74 74 73 74 72 73 70 74 60 59 62 72 69 68 66 63 61 63 58 57 58 56 55 57 57 58 59 58 58 58 58 58 58 57 56
76 76 75 75 74 75 74 74 74 73 74 72 72 73 73 72 70 57 57 72 71 69 66 65 62 58 55 53 55 55 55 56 56 56 57 58 59 59 61 59 58 57 56
76 75 74 75 76 76 74 74 74 73 72 72 72 72 74 74 62 56 56 59 66 71 67 69 65 55 53 52 54 53 53 55 57 56 57 59 59 60 61 60 57 57 57
73 73 74 74 75 76 73 73 73 72 73 73 73 73 74 74 70 58 55 56 58 69 72 67 59 52 51 52 53 53 53 53 55 56 57 58 58 59 57 58 58 56 57
73 73 73 73 73 74 75 75 74 73 73 74 74 73 74 69 67 69 67 60 57 61 63 62 59 57 56 55 55 54 51 52 53 55 57 58 57 58 58 57 57 57 57
73 74 74 75 72 74 75 75 75 76 74 75 75 76 74 73 67 65 65 64 65 63 64 60 56 57 54 56 52 53 52 53 54 56 55 56 57 57 57 56 55 55 55
74 74 74 75 75 75 74 74 60 59 56 56 56 69 76 63 55 53 50 50 50 51 62 59 57 54 54 54 55 57 54 54 53 54 56 56 57 56 56 55 54 54 54
73 74 74 72 74 73 74 74 73 62 52 51 48 50 50 59 51 51 49 45 45 50 63 61 58 56 57 57 58 56 54 57 55 57 56 56 56 54 55 54 55 54 55
73 63 74 74 76 74 74 75 76 75 73 71 54 52 48 47 49 48 44 47 49 52 61 57 57 58 57 55 56 55 55 55 56 56 56 54 55 55 55 54 54 54 54
73 74 74 75 74 73 76 75 76 75 75 72 66 53 45 42 42 43 46 62 56 54 57 59 58 59 58 57 59 55 55 56 56 53 55 55 56 54 54 55 55 49 51
69 63 66 74 74 74 75 75 74 74 74 71 69 72 54 52 54 51 53 60 58 58 59 61 59 59 59 60 58 54 55 53 56 56 55 54 53 54 56 56 55 56 56
68 69 63 73 73 75 75 75 75 75 74 71 72 71 52 64 64 58 54 58 59 59 59 60 56 58 61 60 58 56 57 57 56 57 54 53 54 52 55 55 55 56 56
65 66 67 67 70 72 74 75 75 74 74 72 72 66 46 63 66 62 58 58 60 60 59 56 56 61 63 61 58 59 58 58 58 56 53 55 55 54 56 55 56 56 56
61 62 63 64 66 63 69 73 74 72 72 72 72 61 57 62 66 63 60 60 59 57 56 55 57 61 60 60 62 61 60 58 58 55 54 54 54 53 56 56 57 57 56
57 58 59 60 61 61 63 66 72 64 69 73 69 66 65 65 65 62 61 60 58 56 55 55 59 61 59 60 60 62 63 59 56 56 57 56 53 52 57 56 58 57 56
54 54 55 56 57 58 58 60 64 69 70 70 66 64 65 62 63 62 61 63 58 57 57 57 57 62 60 59 61 63 53 42 54 49 59 58 55 56 58 58 58 58 56
51 51 51 52 53 54 55 56 56 59 63 65 63 64 61 61 62 60 60 60 61 60 59 58 60 61 61 62 61 49 39 39 45 45 59 59 57 59 58 58 58 58 55

GFSGL_sfc_temp_213.txt.gz
Temp
83 83 82 83 83 83 84 84 84 84 84 84 85 85 85 84 83 81 80 79 77 76 75 74 73 72 77 77 76 75 74 73 70 75 72 72 68 69 71 72 72 71 75
83 83 82 83 83 84 83 84 84 83 84 84 85 84 85 84 84 82 81 82 78 77 76 74 74 75 71 72 74 70 72 71 70 65 69 70 66 69 68 67 71 75 73
83 83 83 84 84 83 84 84 84 83 84 85 84 83 84 84 84 83 82 82 79 79 77 75 75 73 72 74 71 72 70 69 68 68 68 70 69 69 69 69 68 70 73
84 84 83 83 84 85 84 84 83 83 83 83 83 83 84 84 84 84 82 81 80 79 78 76 76 74 73 72 70 69 68 68 67 67 69 69 68 69 66 66 69 73 71
83 83 82 83 84 84 84 83 83 82 83 84 83 83 84 84 86 83 83 81 80 79 78 77 76 74 71 71 74 70 65 63 68 69 69 68 68 68 67 69 66 70 71
82 82 83 82 82 82 82 82 81 81 81 81 81 82 82 85 74 70 78 84 82 80 78 77 76 70 69 65 64 66 66 62 65 69 69 67 65 66 68 67 66 66 65
81 81 82 82 81 81 82 81 81 80 81 80 80 81 81 82 68 66 68 82 83 82 80 79 76 73 70 74 64 63 63 63 64 66 63 65 64 66 64 63 64 64 65
81 81 81 81 81 81 81 80 81 81 80 80 81 81 81 82 66 63 65 79 81 81 81 80 77 75 70 72 72 69 68 66 64 66 64 66 67 67 64 65 63 63 66
81 81 81 81 81 81 80 79 81 81 81 81 82 81 80 81 62 62 65 79 80 80 80 79 76 75 68 62 68 66 66 67 63 59 60 60 59 58 60 66 67 66 66
81 81 82 82 81 80 80 80 81 82 82 84 82 82 76 81 62 59 64 82 81 81 80 79 65 72 62 59 66 67 62 67 64 61 60 59 58 63 58 64 69 66 66
83 83 82 82 80 81 81 81 81 81 82 81 81 82 81 79 79 58 58 80 83 82 82 81 78 60 57 55 58 67 62 64 63 65 65 67 67 69 71 69 68 67 66
82 82 81 81 82 84 80 81 81 81 80 80 79 81 84 81 65 59 57 59 72 82 81 83 81 57 54 53 55 55 54 58 63 67 67 68 70 71 72 70 67 65 67
80 80 80 81 81 82 80 80 81 80 82 81 83 83 84 86 83 61 57 56 58 71 82 76 65 54 51 52 53 52 54 57 64 62 68 64 70 73 67 66 66 62 62
79 79 80 80 79 81 83 83 83 84 83 83 84 84 86 86 85 81 78 75 58 61 65 70 59 57 56 56 52 52 54 58 61 62 67 67 69 69 67 68 64 63 64
79 80 81 82 80 81 82 84 84 84 84 85 86 87 86 86 86 72 74 84 83 71 70 63 58 58 54 58 58 54 55 58 57 58 65 68 66 67 65 63 62 61 62
79 81 83 85 85 83 84 82 64 62 56 56 55 71 87 67 53 54 54 53 52 52 68 66 62 59 58 58 62 63 55 57 58 60 60 66 61 63 65 65 64 62 61
79 83 85 79 85 84 83 83 82 72 54 51 49 50 49 58 49 50 51 48 46 52 68 67 62 59 59 57 59 60 57 56 57 60 62 67 64 62 57 64 65 64 63
79 64 83 85 86 86 85 85 86 85 85 84 59 57 50 46 47 45 44 49 55 55 65 64 62 62 61 59 57 63 59 54 60 61 63 66 66 64 61 64 64 63 63
71 77 83 85 86 82 86 85 87 85 85 86 86 61 50 42 43 43 45 72 70 62 62 64 62 62 61 61 59 58 56 56 61 63 67 66 65 60 64 66 65 53 55
67 63 65 75 80 80 82 84 86 85 85 85 85 86 73 59 68 62 56 62 67 68 65 64 62 62 61 59 57 57 56 58 58 64 68 66 64 59 62 65 64 64 64
64 66 63 70 72 73 74 82 85 86 86 86 85 83 61 78 81 76 66 64 67 68 69 65 66 61 59 56 55 55 57 58 60 68 67 67 61 66 66 65 66 66 67
65 65 68 67 65 68 69 79 81 85 87 87 87 82 47 69 79 80 76 69 69 68 69 64 59 57 57 57 57 57 59 59 68 68 68 65 66 67 66 65 66 65 67
61 62 65 63 63 61 64 67 70 73 78 82 82 82 76 73 72 74 77 74 67 63 61 59 59 58 59 61 64 64 61 66 72 70 68 64 62 67 67 66 66 65 66
60 58 59 60 59 61 59 60 61 58 65 74 78 79 80 79 77 77 73 70 64 62 61 61 61 61 61 61 63 67 70 77 74 71 66 67 68 63 67 67 66 65 65
59 57 55 55 56 57 57 57 57 57 59 63 65 66 67 68 68 67 65 66 64 64 64 63 62 61 60 61 64 65 56 44 66 57 66 69 68 66 68 68 67 66 64
55 55 52 53 52 53 55 54 52 53 54 55 58 61 62 61 63 65 64 63 63 63 64 66 67 62 61 63 62 52 40 39 54 49 68 70 67 68 68 67 65 66 63